Temp
-11 -11 -11 -11 -11 -11 -11 -11 -11 -11 -11 -11 -11 -11 -11 -11 -12 -11 -11 -12 -11 -11 -12 -11 -11 -11 -11 -11 -10 -11 -10 -10 -10 -10 -10 -10 -10 -10 -10 -10 -11 -11 -10 -11 -11
-11 -11 -11 -11 -11 -11 -11 -10 -10 -10 -10 -10 -10 -11 -11 -11 -11 -11 -11 -12 -11 -11 -11 -11 -11 -11 -11 -11 -11 -11 -10 -10 -10 -11 -11 -11 -11 -10 -10 -10 -11 -10 -11 -11 -11
-10 -10 -10 -10 -11 -11 -11 -11 -11 -11 -11 -11 -10 -10 -11 -11 -10 -11 -11 -12 -11 -11 -12 -12 -12 -11 -11 -11 -11 -10 -9 -10 -11 -11 -11 -11 -11 -11 -10 -10 -10 -10 -11 -12 -12
-10 -10 -10 -10 -10 -10 -10 -11 -11 -11 -10 -10 -10 -10 -10 -10 -10 -10 -11 -12 -12 -12 -12 -12 -12 -12 -11 -11 -11 -11 -10 -10 -11 -11 -11 -11 -11 -10 -11 -11 -10 -10 -11 -12 -12
-10 -10 -10 -10 -10 -10 -10 -10 -10 -10 -10 -10 -10 -10 -10 -9 -9 -10 -10 -11 -11 -12 -12 -12 -12 -12 -11 -11 -11 -11 -11 -11 -11 -12 -11 -11 -10 -11 -11 -10 -11 -11 -11 -12 -12
-10 -10 -10 -10 -10 -10 -10 -10 -10 -10 -10 -10 -10 -10 -10 -9 -10 -11 -10 -11 -11 -12 -12 -12 -13 -13 -12 -11 -11 -11 -11 -11 -11 -11 -11 -11 -11 -11 -10 -11 -12 -12 -12 -12 -12
-10 -10 -10 -9 -9 -9 -9 -9 -9 -9 -9 -10 -10 -10 -9 -9 -11 -10 -11 -11 -11 -11 -12 -12 -13 -12 -12 -11 -11 -11 -10 -11 -11 -11 -10 -11 -9 -11 -11 -12 -12 -11 -10 -10 -11
-10 -10 -10 -10 -9 -9 -9 -9 -9 -9 -9 -9 -9 -9 -9 -10 -10 -11 -11 -11 -12 -11 -12 -12 -13 -13 -12 -12 -12 -11 -11 -11 -11 -11 -10 -12 -10 -11 -12 -12 -12 -10 -9 -9 -9
-10 -9 -9 -9 -9 -9 -9 -9 -9 -9 -9 -9 -9 -9 -8 -9 -10 -11 -11 -11 -12 -11 -12 -12 -13 -12 -12 -12 -12 -11 -11 -10 -10 -10 -12 -11 -11 -12 -13 -13 -12 -10 -10 -9 -9
-9 -9 -9 -9 -9 -8 -8 -8 -8 -8 -8 -9 -9 -9 -9 -9 -9 -10 -11 -11 -12 -12 -12 -12 -12 -12 -12 -11 -9 -9 -9 -10 -10 -10 -12 -11 -11 -12 -13 -13 -11 -10 -9 -10 -10
-9 -9 -9 -8 -8 -8 -8 -8 -8 -8 -8 -8 -8 -8 -9 -9 -9 -9 -11 -11 -12 -12 -12 -12 -12 -10 -10 -10 -11 -11 -11 -11 -10 -11 -12 -11 -12 -12 -12 -12 -12 -10 -10 -10 -10
-9 -9 -9 -9 -9 -9 -9 -10 -10 -10 -9 -10 -9 -9 -10 -11 -9 -10 -10 -11 -11 -12 -13 -13 -11 -10 -11 -12 -11 -11 -11 -10 -11 -12 -11 -12 -12 -12 -12 -11 -11 -11 -11 -10 -11
-10 -10 -10 -12 -13 -14 -15 -16 -17 -16 -13 -13 -15 -12 -12 -11 -10 -11 -10 -11 -11 -12 -12 -12 -9 -12 -12 -12 -11 -12 -11 -11 -11 -13 -13 -12 -12 -12 -11 -11 -11 -10 -11 -11 -11
-12 -15 -17 -19 -20 -20 -20 -20 -20 -19 -18 -18 -18 -17 -16 -13 -12 -12 -11 -11 -11 -12 -13 -12 -12 -12 -12 -12 -12 -11 -11 -12 -13 -13 -12 -13 -10 -11 -10 -11 -11 -11 -11 -11 -11
-18 -20 -20 -21 -22 -22 -22 -22 -21 -21 -20 -20 -21 -20 -19 -17 -15 -14 -14 -14 -13 -12 -12 -10 -10 -11 -12 -12 -12 -12 -13 -13 -13 -13 -13 -12 -11 -9 -11 -10 -10 -11 -11 -11 -11
-21 -21 -22 -23 -23 -23 -23 -23 -23 -23 -21 -23 -23 -23 -22 -20 -20 -17 -16 -15 -14 -14 -13 -12 -12 -13 -12 -12 -12 -13 -12 -13 -13 -13 -12 -11 -12 -9 -10 -11 -11 -11 -11 -11 -12
-22 -23 -23 -24 -24 -24 -24 -24 -24 -24 -24 -24 -24 -24 -23 -23 -22 -20 -18 -17 -15 -14 -13 -12 -11 -11 -12 -12 -12 -13 -13 -12 -13 -12 -10 -10 -11 -9 -11 -11 -11 -11 -11 -11 -11
-23 -24 -24 -24 -24 -24 -25 -25 -25 -25 -25 -24 -24 -25 -24 -23 -22 -22 -20 -19 -16 -15 -15 -12 -12 -12 -12 -11 -11 -12 -12 -11 -11 -11 -11 -11 -9 -9 -10 -11 -11 -11 -11 -11 -11
-25 -25 -25 -25 -26 -25 -26 -26 -26 -26 -26 -25 -25 -25 -24 -24 -22 -22 -21 -20 -17 -17 -15 -14 -12 -12 -12 -12 -12 -12 -11 -12 -12 -11 -11 -9 -9 -9 -10 -11 -11 -10 -11 -11 -11
-25 -25 -26 -26 -26 -26 -26 -26 -26 -26 -26 -26 -26 -25 -24 -24 -22 -22 -22 -21 -19 -17 -15 -13 -12 -12 -13 -13 -12 -12 -12 -11 -11 -10 -10 -9 -9 -9 -10 -10 -10 -10 -11 -11 -11
-25 -26 -26 -27 -26 -26 -26 -26 -26 -26 -26 -26 -25 -25 -25 -24 -23 -22 -21 -21 -21 -17 -15 -14 -12 -12 -13 -12 -11 -11 -11 -11 -11 -11 -10 -9 -9 -9 -10 -11 -10 -11 -11 -11 -11
-26 -27 -27 -26 -26 -26 -26 -26 -26 -26 -25 -26 -25 -25 -24 -24 -24 -22 -21 -20 -21 -18 -16 -15 -13 -13 -12 -12 -12 -12 -12 -11 -11 -10 -10 -10 -9 -9 -10 -11 -11 -11 -11 -11 -11
-26 -27 -27 -27 -27 -27 -26 -26 -26 -26 -26 -26 -26 -25 -25 -24 -23 -22 -22 -21 -20 -20 -18 -16 -14 -14 -13 -13 -12 -11 -11 -11 -11 -11 -10 -11 -10 -11 -11 -11 -11 -11 -11 -11 -10
-25 -26 -27 -27 -27 -26 -26 -26 -26 -26 -26 -26 -26 -26 -26 -25 -24 -24 -22 -21 -20 -20 -19 -16 -14 -13 -13 -12 -12 -11 -11 -10 -11 -10 -10 -9 -10 -11 -11 -11 -11 -12 -12 -11 -10
-25 -25 -26 -27 -27 -26 -26 -26 -26 -26 -25 -25 -26 -26 -26 -25 -25 -24 -22 -21 -20 -20 -19 -17 -15 -14 -13 -13 -12 -11 -11 -10 -9 -10 -10 -9 -10 -11 -12 -12 -11 -12 -12 -11 -10
-24 -25 -25 -26 -26 -27 -27 -26 -26 -26 -25 -25 -25 -25 -25 -25 -25 -24 -23 -21 -21 -20 -20 -18 -16 -13 -13 -13 -13 -12 -11 -10 -10 -11 -10 -10 -10 -12 -12 -12 -12 -12 -12 -11 -11
-24 -25 -25 -25 -25 -26 -26 -26 -25 -25 -25 -25 -25 -26 -25 -25 -25 -24 -24 -23 -21 -20 -20 -19 -16 -14 -14 -14 -13 -12 -11 -10 -10 -10 -10 -10 -11 -11 -11 -11 -12 -12 -11 -12 -11
Height
5797 5798 5799 5799 5800 5801 5802 5804 5805 5808 5810 5811 5816 5821 5825 5826 5831 5833 5840 5841 5838 5840 5841 5847 5850 5852 5854 5855 5857 5857 5856 5862 5867 5870 5871 5867 5865 5864 5861 5859 5859 5862 5859 5854 5854
5789 5790 5790 5792 5793 5794 5794 5796 5797 5798 5801 5802 5805 5808 5812 5815 5818 5822 5834 5826 5826 5829 5834 5838 5842 5845 5844 5847 5847 5848 5848 5856 5863 5862 5862 5860 5859 5858 5858 5855 5856 5857 5853 5848 5848
5786 5785 5785 5785 5784 5785 5786 5788 5789 5790 5791 5793 5796 5798 5802 5804 5806 5812 5817 5818 5815 5821 5825 5828 5830 5833 5835 5837 5839 5840 5838 5852 5853 5854 5851 5852 5853 5849 5850 5850 5856 5851 5848 5845 5842
5779 5779 5778 5776 5777 5777 5777 5777 5779 5781 5783 5784 5786 5788 5792 5793 5795 5800 5806 5810 5811 5812 5814 5817 5819 5822 5824 5825 5833 5829 5832 5840 5846 5842 5840 5843 5842 5844 5840 5845 5849 5844 5839 5839 5837
5772 5770 5769 5768 5767 5767 5767 5766 5767 5768 5769 5771 5773 5776 5780 5782 5787 5789 5795 5799 5800 5802 5802 5805 5807 5813 5814 5819 5820 5816 5822 5830 5831 5832 5832 5835 5834 5835 5837 5841 5838 5833 5831 5829 5827
5763 5761 5760 5759 5759 5758 5757 5757 5757 5757 5758 5758 5759 5762 5765 5769 5779 5779 5778 5782 5786 5788 5791 5793 5797 5803 5803 5803 5807 5811 5811 5816 5818 5821 5827 5827 5828 5819 5833 5832 5827 5821 5819 5819 5818
5752 5750 5748 5747 5745 5745 5745 5745 5744 5744 5744 5744 5746 5748 5753 5760 5762 5767 5764 5767 5772 5777 5779 5783 5786 5787 5792 5794 5797 5799 5798 5802 5805 5816 5817 5821 5812 5816 5823 5818 5809 5806 5808 5806 5808
5741 5738 5736 5733 5731 5730 5728 5728 5729 5730 5730 5730 5731 5734 5740 5745 5748 5752 5752 5755 5756 5763 5768 5769 5773 5776 5777 5782 5786 5788 5789 5788 5800 5808 5809 5809 5799 5811 5815 5805 5797 5796 5795 5796 5798
5728 5724 5720 5716 5713 5710 5708 5707 5708 5709 5711 5713 5717 5721 5727 5727 5735 5735 5740 5743 5742 5746 5752 5755 5757 5762 5767 5769 5774 5772 5774 5784 5794 5797 5801 5798 5795 5802 5805 5796 5789 5789 5787 5787 5789
5713 5709 5704 5699 5695 5691 5689 5687 5687 5687 5687 5689 5695 5704 5709 5710 5715 5720 5724 5726 5730 5731 5737 5741 5744 5749 5755 5757 5756 5770 5774 5776 5781 5793 5791 5790 5788 5791 5795 5789 5785 5781 5782 5784 5786
5694 5688 5680 5673 5668 5665 5663 5661 5662 5662 5662 5665 5670 5677 5684 5687 5695 5700 5705 5709 5715 5718 5723 5729 5731 5736 5749 5756 5757 5761 5761 5768 5774 5780 5778 5783 5780 5784 5786 5783 5779 5778 5780 5781 5784
5672 5664 5656 5647 5641 5634 5632 5628 5623 5626 5636 5634 5641 5648 5655 5662 5673 5677 5685 5693 5699 5707 5713 5713 5717 5738 5744 5742 5746 5751 5754 5757 5764 5770 5770 5774 5769 5774 5778 5777 5774 5776 5778 5780 5782
5651 5641 5633 5623 5616 5609 5605 5601 5597 5596 5600 5617 5609 5617 5624 5628 5644 5656 5663 5670 5685 5690 5697 5703 5722 5730 5730 5733 5735 5740 5742 5753 5757 5760 5762 5760 5757 5764 5771 5770 5769 5773 5777 5778 5779
5628 5618 5610 5604 5599 5592 5589 5583 5580 5579 5579 5592 5588 5589 5592 5598 5617 5629 5640 5650 5661 5677 5686 5693 5708 5708 5715 5719 5726 5730 5739 5740 5746 5747 5751 5752 5743 5758 5764 5764 5765 5770 5773 5773 5774
5609 5602 5595 5587 5585 5579 5574 5570 5567 5567 5569 5572 5561 5567 5573 5577 5585 5601 5614 5625 5644 5658 5669 5688 5691 5695 5704 5715 5723 5727 5726 5730 5734 5738 5738 5745 5739 5756 5756 5758 5762 5766 5769 5770 5770
5597 5590 5584 5577 5571 5567 5562 5558 5557 5558 5558 5557 5554 5558 5564 5564 5567 5584 5594 5605 5623 5637 5655 5668 5679 5687 5699 5706 5714 5715 5715 5718 5725 5730 5724 5737 5743 5751 5754 5754 5756 5761 5764 5764 5766
5585 5578 5572 5566 5561 5554 5550 5546 5547 5546 5549 5548 5549 5551 5555 5557 5558 5567 5575 5586 5604 5619 5638 5652 5664 5676 5684 5692 5699 5701 5705 5709 5715 5718 5719 5735 5739 5746 5748 5749 5752 5756 5757 5759 5761
5574 5567 5561 5555 5548 5541 5537 5536 5536 5538 5539 5539 5542 5546 5548 5552 5554 5556 5565 5575 5589 5607 5623 5638 5651 5663 5674 5682 5693 5699 5702 5702 5708 5711 5714 5731 5727 5742 5744 5746 5749 5751 5753 5756 5758
5567 5560 5553 5546 5538 5532 5529 5529 5530 5532 5532 5532 5536 5538 5542 5544 5546 5549 5557 5566 5578 5589 5606 5625 5640 5654 5665 5676 5684 5691 5685 5702 5706 5708 5715 5722 5728 5736 5740 5743 5744 5748 5751 5753 5755
5563 5554 5547 5540 5536 5532 5528 5527 5527 5528 5528 5529 5531 5533 5535 5538 5540 5543 5549 5559 5568 5576 5588 5610 5626 5641 5653 5664 5673 5678 5693 5696 5697 5699 5704 5715 5720 5731 5737 5739 5740 5746 5747 5749 5751
5559 5549 5542 5536 5534 5533 5531 5530 5528 5527 5524 5522 5523 5526 5529 5532 5535 5540 5548 5552 5557 5570 5583 5599 5615 5629 5639 5651 5662 5669 5673 5680 5688 5695 5700 5709 5716 5728 5732 5733 5737 5742 5743 5746 5748
5556 5546 5538 5533 5534 5531 5532 5531 5529 5527 5524 5521 5518 5520 5523 5526 5531 5535 5541 5546 5552 5562 5573 5586 5601 5616 5635 5645 5657 5665 5674 5683 5687 5693 5698 5704 5714 5722 5725 5729 5732 5738 5741 5743 5746
5557 5547 5537 5530 5533 5533 5533 5532 5531 5528 5525 5522 5519 5519 5520 5523 5527 5531 5537 5543 5546 5556 5563 5575 5588 5606 5619 5632 5645 5653 5664 5670 5676 5683 5690 5697 5708 5717 5721 5725 5730 5735 5737 5741 5743
5560 5550 5543 5536 5534 5534 5534 5532 5531 5529 5526 5523 5521 5520 5520 5520 5522 5527 5532 5540 5545 5553 5556 5564 5579 5597 5612 5630 5639 5645 5652 5660 5668 5676 5684 5691 5703 5714 5717 5721 5728 5731 5734 5738 5740
5563 5554 5547 5543 5539 5536 5535 5533 5532 5531 5527 5525 5523 5521 5520 5520 5519 5522 5528 5534 5541 5549 5553 5561 5573 5589 5604 5617 5629 5639 5648 5654 5661 5672 5676 5691 5699 5706 5713 5718 5723 5727 5731 5736 5737
5568 5560 5552 5546 5543 5539 5536 5533 5530 5529 5528 5525 5522 5520 5518 5517 5517 5519 5523 5529 5535 5543 5551 5557 5569 5582 5599 5611 5621 5631 5641 5649 5656 5664 5672 5684 5695 5699 5705 5710 5717 5723 5729 5732 5733
5571 5563 5557 5552 5546 5541 5537 5534 5531 5528 5526 5524 5521 5518 5516 5514 5514 5517 5519 5522 5528 5537 5545 5554 5563 5575 5593 5602 5614 5626 5638 5644 5652 5656 5668 5678 5689 5693 5699 5705 5713 5719 5725 5728 5730
Wind_Speed
26 27 28 28 30 32 36 42 44 48 51 59 67 68 67 62 59 56 47 43 47 54 49 46 45 43 39 37 40 43 48 42 34 31 28 34 41 39 41 43 43 39 39 42 35
29 30 30 31 31 33 34 37 41 46 47 46 52 58 61 62 61 66 55 58 60 55 54 55 50 49 49 44 46 46 50 44 35 34 33 38 43 43 45 46 43 40 41 44 40
29 30 32 33 33 34 36 39 40 41 42 46 49 50 52 52 50 59 63 61 63 60 61 57 58 59 59 56 51 54 54 39 38 38 44 42 43 49 48 50 43 42 44 45 46
33 35 37 38 39 40 41 41 41 44 44 45 46 46 48 49 52 51 52 61 61 60 60 64 63 57 55 55 47 58 56 47 38 38 46 46 49 46 51 48 42 44 48 48 49
31 33 34 37 39 42 44 45 47 48 49 50 48 50 52 51 48 52 54 55 58 61 62 63 61 55 51 50 51 56 58 52 45 45 45 46 48 48 47 43 44 48 51 52 53
35 37 39 40 41 43 44 45 48 51 52 53 54 52 52 49 50 50 50 51 60 58 60 63 62 56 56 56 53 51 55 56 56 51 42 42 45 53 40 45 49 55 58 58 56
41 43 44 45 46 47 49 51 52 53 54 54 56 57 56 51 54 51 55 50 53 58 60 63 65 64 63 60 57 56 57 59 59 49 45 44 49 48 45 50 57 61 56 57 52
47 49 51 54 55 57 58 58 58 58 60 60 61 60 58 58 56 53 52 51 51 57 57 63 65 64 65 62 62 62 62 63 56 48 45 49 55 43 41 53 59 58 55 50 45
54 56 58 60 62 65 67 69 69 70 69 68 67 66 64 64 59 59 55 54 54 57 60 60 67 67 67 67 65 68 67 60 52 49 51 50 51 43 41 50 57 49 46 41 31
54 57 60 64 67 70 72 74 75 77 78 78 76 73 70 70 68 64 60 59 56 56 60 60 63 66 66 67 65 56 53 55 53 48 53 50 46 44 42 47 49 47 31 23 16
60 63 67 71 74 76 77 80 82 83 82 82 82 81 79 79 75 72 67 65 61 59 57 63 63 62 57 55 61 63 65 59 56 53 56 46 47 45 38 40 39 29 18 20 20
67 71 75 79 82 84 86 87 86 86 84 82 86 87 82 82 81 81 77 70 67 62 59 60 61 50 51 58 59 61 62 61 60 58 56 49 50 36 35 31 30 21 20 21 17
75 78 80 78 76 73 71 66 65 65 80 69 69 77 78 84 86 85 83 78 68 66 63 62 42 47 49 49 52 52 56 55 56 59 50 47 44 40 31 28 25 20 18 20 18
75 68 61 54 50 51 50 51 52 53 57 51 52 55 65 76 79 86 85 82 77 67 62 60 51 51 50 50 47 47 44 44 48 55 44 38 49 35 26 26 25 20 13 15 18
57 52 48 46 44 45 45 45 45 46 45 40 41 41 46 59 72 77 84 81 76 69 66 59 59 57 50 45 39 37 38 38 44 45 43 42 50 14 22 24 23 24 16 16 17
49 46 44 43 42 42 42 40 38 37 37 31 34 27 28 40 53 63 73 78 73 67 62 61 59 53 50 43 39 34 34 35 42 44 50 45 39 19 14 17 24 24 19 19 19
46 43 41 40 40 41 39 36 32 31 27 30 31 30 25 30 32 46 61 68 73 70 66 64 63 57 55 47 45 42 36 37 36 41 49 36 34 10 4 18 23 21 23 17 22
40 37 37 38 39 34 27 27 25 24 22 28 28 23 22 23 17 35 48 56 66 66 65 66 64 59 54 49 41 37 36 42 41 47 46 27 35 16 14 13 13 25 24 20 20
33 36 33 34 26 21 18 17 17 17 21 24 22 26 23 28 22 26 39 51 61 66 67 64 63 57 53 46 41 36 43 36 37 39 33 31 25 17 16 13 24 15 18 22 18
34 35 32 30 15 17 13 9 11 16 20 22 20 22 26 29 32 22 30 43 59 67 67 64 65 60 54 49 48 44 31 36 41 44 39 29 27 18 14 18 24 12 20 22 16
39 38 27 20 8 9 11 13 14 13 11 14 20 19 24 31 39 23 35 32 50 64 63 63 65 62 61 55 52 50 48 49 44 41 38 32 28 15 15 21 20 16 19 19 15
41 31 29 14 10 8 7 10 14 14 13 14 8 14 22 30 36 29 42 22 44 58 65 65 65 62 58 56 49 49 45 39 39 38 36 35 26 17 18 23 24 19 21 17 18
39 34 32 9 4 17 8 10 10 14 16 11 10 6 17 24 33 38 25 42 39 53 61 68 67 62 60 58 55 52 47 49 49 46 43 40 34 22 16 21 26 23 23 19 17
40 34 31 23 14 6 13 6 14 16 13 13 13 8 8 14 23 28 30 47 34 45 55 67 68 64 60 55 53 53 54 50 49 47 45 42 32 21 24 23 23 26 26 21 13
43 39 31 24 18 11 12 13 8 14 17 14 14 13 10 12 19 19 35 42 42 43 52 61 67 65 60 58 55 52 49 51 48 43 44 35 27 24 23 25 26 26 26 19 13
37 37 35 28 21 15 12 9 9 12 12 15 12 13 13 11 14 19 30 38 32 44 49 60 63 66 60 55 57 54 48 47 46 43 38 28 25 31 33 32 28 28 24 20 12
31 30 32 28 27 20 14 11 12 14 17 14 12 15 16 11 9 15 20 34 38 40 47 59 62 66 59 58 54 56 47 44 43 43 33 28 31 36 34 34 30 26 27 19 14
Wind_Direction
257 254 250 246 246 247 245 242 238 242 246 243 238 238 237 245 245 236 230 242 244 244 250 242 247 247 248 244 250 251 249 247 253 258 269 257 266 274 283 290 295 302 303 293 302
273 272 267 263 260 252 247 245 245 245 245 244 242 244 243 245 243 241 238 239 242 241 250 250 251 256 246 258 245 250 253 249 256 259 257 261 264 269 277 283 298 300 298 293 296
271 269 269 267 268 267 260 252 249 250 249 247 245 242 241 243 243 243 240 243 247 251 250 250 255 253 255 257 257 249 255 251 250 262 258 259 262 267 274 274 290 294 292 286 289
268 268 268 269 267 266 267 266 259 253 249 249 250 246 244 244 245 245 242 243 246 253 257 254 255 251 257 258 258 255 258 248 251 260 257 257 259 268 271 277 286 284 286 286 282
270 269 268 268 269 270 269 267 265 263 260 257 253 248 248 250 252 259 253 247 247 248 251 251 254 249 249 259 258 251 248 249 251 254 265 263 266 273 270 284 284 284 284 284 280
278 276 274 271 269 268 267 267 267 265 263 261 259 257 252 253 251 251 257 253 243 244 245 246 248 248 248 251 252 253 251 253 254 262 264 272 275 270 286 290 281 277 278 276 274
286 283 280 278 275 273 270 267 265 264 265 264 262 260 259 257 252 249 254 259 247 241 243 242 243 246 248 249 251 253 252 253 256 263 266 273 272 277 285 287 280 275 273 271 271
288 285 282 279 277 275 273 270 268 265 262 260 260 261 261 257 254 250 246 251 250 240 240 240 239 243 247 247 249 254 255 256 259 264 268 269 273 282 288 285 284 282 284 280 273
287 286 284 282 281 280 278 276 275 271 266 260 257 257 257 257 254 250 248 246 248 243 238 237 237 239 242 247 251 252 253 257 262 259 265 272 282 288 288 284 281 287 283 283 276
284 282 280 279 277 275 273 271 270 269 268 265 262 258 255 254 252 250 250 246 241 244 239 237 236 237 241 244 249 255 258 258 260 267 267 274 280 284 279 276 286 287 282 276 246
289 288 287 285 282 279 277 275 273 270 267 262 263 259 255 250 249 249 244 245 242 240 242 238 235 238 246 254 252 253 256 258 261 263 264 274 277 277 271 274 279 278 270 248 249
296 294 293 291 288 285 282 280 279 274 268 267 262 258 254 247 246 246 245 239 241 242 236 239 244 243 243 247 251 252 256 257 260 261 268 269 267 261 260 264 264 268 252 248 257
300 297 294 292 290 287 285 283 280 276 272 267 264 260 252 247 244 240 242 244 236 236 237 241 249 247 241 247 251 253 258 259 261 260 265 264 251 250 250 252 253 246 248 249 254
305 302 298 294 292 289 289 286 283 279 275 273 266 258 251 245 239 235 236 239 238 233 233 237 238 238 234 236 242 249 256 254 253 255 256 250 249 241 239 241 241 235 245 252 258
308 303 301 299 297 295 293 289 285 280 278 270 266 259 254 246 238 230 227 230 235 234 231 236 238 237 230 236 244 261 256 245 246 251 254 233 246 197 228 232 230 230 250 249 247
307 305 304 303 300 297 294 290 282 275 271 264 267 270 262 252 243 228 224 224 225 227 225 227 231 232 232 232 237 247 241 236 239 243 241 231 246 182 229 239 229 230 252 243 236
309 309 308 304 300 297 292 288 278 270 274 262 260 264 262 250 253 230 222 218 218 219 218 222 228 226 226 227 225 230 219 226 229 224 232 230 234 142 190 236 239 239 248 237 236
315 316 314 312 308 301 289 279 276 271 266 260 257 251 251 234 238 240 221 214 211 212 212 218 221 223 223 227 228 236 229 217 214 219 233 232 235 180 231 244 240 235 244 228 229
327 326 323 329 328 325 301 278 271 262 266 260 254 243 238 224 217 202 215 208 206 202 206 212 219 221 221 224 223 217 213 210 219 229 239 227 233 203 227 240 252 248 240 226 237
338 334 329 333 333 356 6 345 306 286 285 278 269 257 232 224 225 177 205 207 205 199 200 206 213 214 217 216 217 212 219 218 221 229 234 224 229 224 228 236 249 241 211 226 234
339 336 338 330 323 350 16 17 4 4 342 289 262 251 233 226 227 203 178 186 210 201 198 199 207 211 212 212 217 217 207 213 219 228 236 236 234 229 234 234 238 221 234 229 232
349 351 345 337 341 301 0 23 359 351 359 356 294 241 222 229 232 210 180 169 200 201 201 197 204 209 210 213 213 216 220 228 234 234 240 248 247 236 238 226 235 226 227 228 239
2 2 8 360 2 29 20 1 1 345 355 350 358 253 227 230 233 226 198 196 185 202 206 200 204 203 206 208 209 213 216 218 225 233 234 244 247 242 225 219 231 230 233 234 237
11 8 18 22 10 309 10 352 17 11 9 12 8 333 269 254 241 236 212 192 198 198 207 204 201 203 206 208 210 212 213 216 225 231 235 237 238 229 210 214 209 219 234 234 225
17 17 17 21 24 38 11 359 315 6 9 1 1 1 333 267 256 251 228 184 198 207 210 207 201 203 205 205 209 212 213 219 224 228 233 234 229 207 197 203 205 212 223 233 220
11 17 19 11 10 2 352 327 317 344 357 1 357 340 333 310 256 250 239 197 182 199 210 209 204 202 203 205 207 211 212 215 217 224 229 219 188 184 197 197 202 206 217 215 215
7 8 8 12 14 6 351 342 329 324 324 332 337 324 332 321 258 244 245 233 209 181 202 213 204 203 200 207 206 210 210 215 217 219 207 190 173 191 200 196 199 205 199 203 215